Location: Newark
(49.3000°N, 9.4667°E)
Time: 22:19:47
(UTC+00:00)

Tiros 1 - Pass Details

Date: 28 May 2019
Orbit: 631 x 664 km, 48.4° (Epoch: 18 June)

Event Time Altitude Azimuth Distance (km) Brightness Sun altitude
Rises 12:21:59 0° 280° (W) 2,938 10.7 59.5°
Reaches altitude 10° 12:24:19 10° 277° (W) 2,032 10.0 59.3°
Maximum altitude 12:28:56 61° 197° (SSW) 733 10.2 58.9°
Drops below altitude 10° 12:33:35 10° 118° (ESE) 2,049 9.8 58.5°
Sets 12:35:57 0° 115° (ESE) 2,964 10.5 58.3°
